| time (UTC) | temp F | wind direction | speed MPH | gust MPH | rain 1hr in | rain 24hr in | rain mn in | humidity % | barometer mb |
| 20260510034613 | 51 | 241 | 1.0 | 2.0 | 0.00 | 0.00 | 0.00 | 45 | 1017.1 |
| 20260510034110 | 51 | 211 | 1.0 | 2.0 | 0.00 | 0.00 | 0.00 | 44 | 1017.1 |
| 20260510033606 | 51 | 233 | 1.0 | 3.0 | 0.00 | 0.00 | 0.00 | 44 | 1017.1 |
| 20260510033104 | 51 | 252 | 1.0 | 2.0 | 0.00 | 0.00 | 0.00 | 45 | 1017.1 |
| 20260510032600 | 51 | 221 | 0.0 | 1.0 | 0.00 | 0.00 | 0.00 | 45 | 1017.0 |
| 20260510032055 | 51 | 306 | 2.0 | 3.0 | 0.00 | 0.00 | 0.00 | 44 | 1016.8 |
| 20260510031550 | 51 | 292 | 0.0 | 2.0 | 0.00 | 0.00 | 0.00 | 44 | 1016.7 |
| 20260510031047 | 51 | 222 | 1.0 | 1.0 | 0.00 | 0.00 | 0.00 | 43 | 1016.9 |
| 20260510030542 | 52 | 222 | 0.0 | 1.0 | 0.00 | 0.00 | 0.00 | 43 | 1016.6 |
| 20260510030040 | 52 | 230 | 2.0 | 2.0 | 0.00 | 0.00 | 0.00 | 42 | 1016.5 |
| 20260510025536 | 52 | 235 | 1.0 | 2.0 | 0.00 | 0.00 | 0.00 | 43 | 1016.6 |
| 20260510025034 | 52 | 244 | 1.0 | 2.0 | 0.00 | 0.00 | 0.00 | 42 | 1016.3 |
| 20260510024531 | 53 | 103 | 1.0 | 5.0 | 0.00 | 0.00 | 0.00 | 42 | 1016.1 |
| 20260510024027 | 53 | 258 | 1.0 | 2.0 | 0.00 | 0.00 | 0.00 | 41 | 1016.5 |
| 20260510023523 | 53 | 220 | 0.0 | 3.0 | 0.00 | 0.00 | 0.00 | 41 | 1016.1 |
| 20260510023021 | 53 | 272 | 1.0 | 2.0 | 0.00 | 0.00 | 0.00 | 40 | 1016.1 |
| 20260510022520 | 53 | 245 | 0.0 | 1.0 | 0.00 | 0.00 | 0.00 | 40 | 1015.8 |
| 20260510022014 | 53 | 247 | 3.0 | 6.0 | 0.00 | 0.00 | 0.00 | 39 | 1015.7 |
| 20260510021511 | 53 | 222 | 1.0 | 6.0 | 0.00 | 0.00 | 0.00 | 41 | 1015.6 |
| 20260510021008 | 53 | 259 | 1.0 | 2.0 | 0.00 | 0.00 | 0.00 | 40 | 1015.6 |
| 20260510020503 | 53 | 209 | 1.0 | 2.0 | 0.00 | 0.00 | 0.00 | 40 | 1015.5 |
| 20260510015958 | 54 | 225 | 2.0 | 3.0 | 0.00 | 0.00 | 0.00 | 39 | 1015.1 |
| 20260510015454 | 54 | 140 | 2.0 | 5.0 | 0.00 | 0.00 | 0.00 | 38 | 1015.0 |
| 20260510014950 | 54 | 222 | 1.0 | 5.0 | 0.00 | 0.00 | 0.00 | 38 | 1014.9 |
| 20260510014448 | 54 | 225 | 2.0 | 3.0 | 0.00 | 0.00 | 0.00 | 38 | 1014.8 |
| 20260510013944 | 54 | 222 | 1.0 | 2.0 | 0.00 | 0.00 | 0.00 | 39 | 1014.9 |
| 20260510013438 | 54 | 246 | 1.0 | 6.0 | 0.00 | 0.00 | 0.00 | 38 | 1014.7 |
| 20260510012935 | 54 | 232 | 4.0 | 5.0 | 0.00 | 0.00 | 0.00 | 38 | 1014.5 |
| 20260510012429 | 54 | 196 | 3.0 | 5.0 | 0.00 | 0.00 | 0.00 | 38 | 1014.5 |
| 20260510011925 | 55 | 264 | 1.0 | 2.0 | 0.00 | 0.00 | 0.00 | 38 | 1014.5 |
| 20260510011420 | 55 | 227 | 5.0 | 7.0 | 0.00 | 0.00 | 0.00 | 36 | 1014.5 |
| 20260510010916 | 55 | 258 | 2.0 | 6.0 | 0.00 | 0.00 | 0.00 | 36 | 1014.4 |
| 20260510010414 | 55 | 252 | 3.0 | 3.0 | 0.00 | 0.00 | 0.00 | 36 | 1014.2 |
| 20260510005910 | 56 | 199 | 3.0 | 5.0 | 0.00 | 0.00 | 0.00 | 36 | 1014.1 |
| 20260510005406 | 56 | 322 | 3.0 | 7.0 | 0.00 | 0.00 | 0.00 | 35 | 1014.0 |
| 20260510004904 | 56 | 245 | 4.0 | 6.0 | 0.00 | 0.00 | 0.00 | 35 | 1014.0 |
| 20260510004401 | 57 | 212 | 1.0 | 5.0 | 0.00 | 0.00 | 0.00 | 35 | 1014.0 |
| 20260510003859 | 58 | 277 | 3.0 | 6.0 | 0.00 | 0.00 | 0.00 | 34 | 1014.1 |
| 20260510003356 | 58 | 148 | 2.0 | 5.0 | 0.00 | 0.00 | 0.00 | 34 | 1014.0 |
| 20260510002854 | 57 | 242 | 3.0 | 5.0 | 0.00 | 0.00 | 0.00 | 34 | 1014.0 |
| 20260510002352 | 58 | 250 | 1.0 | 5.0 | 0.00 | 0.00 | 0.00 | 34 | 1013.6 |
| 20260510001848 | 58 | 201 | 9.0 | 14.0 | 0.00 | 0.00 | 0.00 | 33 | 1013.6 |
| 20260510001346 | 58 | 208 | 5.0 | 7.0 | 0.00 | 0.00 | 0.00 | 33 | 1013.8 |
| 20260510000843 | 58 | 130 | 2.0 | 5.0 | 0.00 | 0.00 | 0.00 | 34 | 1013.7 |
| 20260510000341 | 57 | 146 | 2.0 | 10.0 | 0.00 | 0.00 | 0.00 | 35 | 1013.7 |
| 20260509235836 | 58 | 244 | 3.0 | 8.0 | 0.00 | 0.00 | 0.00 | 34 | 1013.7 |
| 20260509235333 | 58 | 237 | 3.0 | 5.0 | 0.00 | 0.00 | 0.00 | 34 | 1013.7 |
| 20260509234829 | 58 | 269 | 4.0 | 7.0 | 0.00 | 0.00 | 0.00 | 34 | 1013.4 |
| 20260509234326 | 58 | 237 | 3.0 | 9.0 | 0.00 | 0.00 | 0.00 | 34 | 1013.4 |
| 20260509233824 | 59 | 207 | 4.0 | 9.0 | 0.00 | 0.00 | 0.00 | 35 | 1013.4 |
| 20260509233321 | 58 | 246 | 4.0 | 8.0 | 0.00 | 0.00 | 0.00 | 34 | 1013.2 |
| 20260509232817 | 58 | 223 | 4.0 | 7.0 | 0.00 | 0.00 | 0.00 | 35 | 1013.3 |
| 20260509232315 | 58 | 219 | 6.0 | 9.0 | 0.00 | 0.00 | 0.00 | 35 | 1013.1 |
| 20260509231811 | 58 | 210 | 6.0 | 9.0 | 0.00 | 0.00 | 0.00 | 35 | 1013.0 |
| 20260509231308 | 58 | 200 | 5.0 | 10.0 | 0.00 | 0.00 | 0.00 | 35 | 1013.3 |
| 20260509230806 | 58 | 254 | 3.0 | 6.0 | 0.00 | 0.00 | 0.00 | 35 | 1013.1 |
| 20260509230302 | 58 | 184 | 3.0 | 8.0 | 0.00 | 0.00 | 0.00 | 34 | 1013.0 |
| 20260509225757 | 58 | 250 | 2.0 | 3.0 | 0.00 | 0.00 | 0.00 | 35 | 1012.8 |
| 20260509225254 | 58 | 224 | 5.0 | 8.0 | 0.00 | 0.00 | 0.00 | 33 | 1012.9 |
| 20260509224750 | 59 | 284 | 5.0 | 8.0 | 0.00 | 0.00 | 0.00 | 33 | 1012.9 |
| 20260509224247 | 59 | 197 | 2.0 | 8.0 | 0.00 | 0.00 | 0.00 | 33 | 1012.8 |
| 20260509223744 | 59 | 232 | 6.0 | 10.0 | 0.00 | 0.00 | 0.00 | 32 | 1012.8 |
| 20260509223241 | 58 | 265 | 5.0 | 10.0 | 0.00 | 0.00 | 0.00 | 31 | 1012.9 |
| 20260509222737 | 59 | 231 | 6.0 | 10.0 | 0.00 | 0.00 | 0.00 | 31 | 1012.9 |
| 20260509222233 | 59 | 231 | 3.0 | 11.0 | 0.00 | 0.00 | 0.00 | 32 | 1012.6 |
| 20260509221728 | 59 | 231 | 3.0 | 5.0 | 0.00 | 0.00 | 0.00 | 33 | 1012.6 |
| 20260509221225 | 59 | 231 | 5.0 | 6.0 | 0.00 | 0.00 | 0.00 | 33 | 1012.7 |
| 20260509220721 | 59 | 240 | 2.0 | 13.0 | 0.00 | 0.00 | 0.00 | 32 | 1012.6 |
| 20260509220217 | 60 | 289 | 7.0 | 10.0 | 0.00 | 0.00 | 0.00 | 31 | 1012.6 |
| 20260509215713 | 60 | 251 | 7.0 | 10.0 | 0.00 | 0.00 | 0.00 | 31 | 1012.6 |
| 20260509215210 | 59 | 65 | 2.0 | 8.0 | 0.00 | 0.00 | 0.00 | 33 | 1012.5 |
| 20260509214707 | 59 | 269 | 5.0 | 9.0 | 0.00 | 0.00 | 0.00 | 33 | 1012.6 |
| 20260509214204 | 60 | 284 | 4.0 | 6.0 | 0.00 | 0.00 | 0.00 | 34 | 1012.5 |
| 20260509213701 | 59 | 31 | 2.0 | 8.0 | 0.00 | 0.00 | 0.00 | 34 | 1012.2 |
| 20260509213156 | 60 | 303 | 3.0 | 6.0 | 0.00 | 0.00 | 0.00 | 33 | 1012.2 |
| 20260509212654 | 60 | 168 | 3.0 | 8.0 | 0.00 | 0.00 | 0.00 | 32 | 1012.5 |
| 20260509212151 | 60 | 222 | 4.0 | 8.0 | 0.00 | 0.00 | 0.00 | 32 | 1012.3 |
| 20260509211647 | 60 | 260 | 2.0 | 5.0 | 0.00 | 0.00 | 0.00 | 33 | 1012.1 |
| 20260509211144 | 59 | 232 | 4.0 | 6.0 | 0.00 | 0.00 | 0.00 | 33 | 1012.2 |
| 20260509210641 | 59 | 277 | 8.0 | 9.0 | 0.00 | 0.00 | 0.00 | 33 | 1012.0 |
| 20260509210137 | 59 | 224 | 4.0 | 9.0 | 0.00 | 0.00 | 0.00 | 33 | 1012.0 |
| 20260509205633 | 60 | 260 | 6.0 | 9.0 | 0.00 | 0.00 | 0.00 | 32 | 1012.1 |
| 20260509205127 | 60 | 325 | 3.0 | 9.0 | 0.00 | 0.00 | 0.00 | 34 | 1012.0 |
| 20260509204623 | 60 | 264 | 4.0 | 9.0 | 0.00 | 0.00 | 0.00 | 34 | 1012.0 |
| 20260509204120 | 60 | 230 | 4.0 | 11.0 | 0.00 | 0.00 | 0.00 | 33 | 1011.8 |
| 20260509203616 | 60 | 314 | 3.0 | 7.0 | 0.00 | 0.00 | 0.00 | 33 | 1012.0 |
| 20260509203115 | 60 | 128 | 2.0 | 9.0 | 0.00 | 0.00 | 0.00 | 38 | 1011.7 |
| 20260509202609 | 59 | 317 | 5.0 | 10.0 | 0.00 | 0.00 | 0.00 | 34 | 1011.8 |
| 20260509202104 | 59 | 182 | 1.0 | 10.0 | 0.00 | 0.00 | 0.00 | 34 | 1012.0 |
| 20260509201559 | 59 | 277 | 8.0 | 14.0 | 0.00 | 0.00 | 0.00 | 33 | 1011.7 |
| 20260509201057 | 59 | 209 | 4.0 | 10.0 | 0.00 | 0.00 | 0.00 | 34 | 1011.7 |
| 20260509200557 | 60 | 193 | 1.0 | 7.0 | 0.00 | 0.00 | 0.00 | 35 | 1011.7 |
| 20260509200053 | 59 | 150 | 6.0 | 17.0 | 0.00 | 0.00 | 0.00 | 34 | 1011.7 |
| 20260509195549 | 59 | 236 | 9.0 | 15.0 | 0.00 | 0.00 | 0.00 | 32 | 1011.6 |
| 20260509195044 | 58 | 230 | 3.0 | 9.0 | 0.00 | 0.00 | 0.00 | 34 | 1011.5 |
| 20260509194538 | 59 | 248 | 6.0 | 13.0 | 0.00 | 0.00 | 0.00 | 33 | 1011.6 |
| 20260509194036 | 60 | 213 | 7.0 | 10.0 | 0.00 | 0.00 | 0.00 | 34 | 1011.7 |
| 20260509193537 | 60 | 279 | 5.0 | 10.0 | 0.00 | 0.00 | 0.00 | 35 | 1011.6 |
| 20260509193033 | 59 | 232 | 0.0 | 3.0 | 0.00 | 0.00 | 0.00 | 36 | 1011.6 |
| 20260509192530 | 59 | 224 | 8.0 | 13.0 | 0.00 | 0.00 | 0.00 | 33 | 1011.4 |
| 20260509192025 | 59 | 289 | 3.0 | 6.0 | 0.00 | 0.00 | 0.00 | 35 | 1011.5 |
| 20260509191520 | 58 | 13 | 5.0 | 10.0 | 0.00 | 0.00 | 0.00 | 36 | 1011.2 |
| 20260509191016 | 58 | 207 | 11.0 | 15.0 | 0.00 | 0.00 | 0.00 | 36 | 1011.2 |
| 20260509190513 | 59 | 106 | 1.0 | 7.0 | 0.00 | 0.00 | 0.00 | 38 | 1011.1 |
| 20260509190011 | 57 | 155 | 4.0 | 7.0 | 0.00 | 0.00 | 0.00 | 38 | 1011.2 |
| 20260509185508 | 58 | 247 | 5.0 | 10.0 | 0.00 | 0.00 | 0.00 | 39 | 1011.0 |
| 20260509185004 | 57 | 199 | 5.0 | 7.0 | 0.00 | 0.00 | 0.00 | 38 | 1011.2 |
| 20260509184503 | 57 | 224 | 5.0 | 8.0 | 0.00 | 0.00 | 0.00 | 38 | 1011.3 |
| 20260509183958 | 58 | 239 | 6.0 | 9.0 | 0.00 | 0.00 | 0.00 | 38 | 1011.1 |
| 20260509183453 | 57 | 164 | 2.0 | 10.0 | 0.00 | 0.00 | 0.00 | 40 | 1011.1 |
| 20260509182949 | 57 | 246 | 5.0 | 13.0 | 0.00 | 0.00 | 0.00 | 41 | 1010.6 |
| 20260509182446 | 58 | 213 | 12.0 | 16.0 | 0.00 | 0.00 | 0.00 | 40 | 1010.8 |
| 20260509181944 | 57 | 241 | 5.0 | 18.0 | 0.00 | 0.00 | 0.00 | 38 | 1011.0 |
| 20260509181441 | 57 | 272 | 7.0 | 10.0 | 0.00 | 0.00 | 0.00 | 43 | 1010.8 |
| 20260509180939 | 57 | 256 | 3.0 | 9.0 | 0.00 | 0.00 | 0.00 | 43 | 1010.7 |
| 20260509180434 | 57 | 220 | 6.0 | 10.0 | 0.00 | 0.00 | 0.00 | 41 | 1010.7 |
| 20260509175931 | 57 | 271 | 7.0 | 8.0 | 0.00 | 0.00 | 0.00 | 41 | 1010.7 |
| 20260509175427 | 58 | 243 | 2.0 | 7.0 | 0.00 | 0.00 | 0.00 | 42 | 1010.7 |
| 20260509174924 | 56 | 246 | 5.0 | 10.0 | 0.00 | 0.00 | 0.00 | 43 | 1010.7 |
| 20260509174420 | 56 | 244 | 5.0 | 9.0 | 0.00 | 0.00 | 0.00 | 46 | 1010.8 |
| 20260509173916 | 56 | 251 | 9.0 | 14.0 | 0.00 | 0.00 | 0.00 | 45 | 1010.5 |
| 20260509173415 | 56 | 186 | 3.0 | 7.0 | 0.00 | 0.00 | 0.00 | 46 | 1010.7 |
| 20260509172912 | 56 | 50 | 1.0 | 7.0 | 0.00 | 0.00 | 0.00 | 49 | 1010.5 |
| 20260509172409 | 56 | 246 | 5.0 | 10.0 | 0.00 | 0.00 | 0.00 | 46 | 1010.7 |
| 20260509171905 | 56 | 264 | 6.0 | 9.0 | 0.00 | 0.00 | 0.00 | 47 | 1010.5 |
| 20260509171401 | 54 | 219 | 4.0 | 9.0 | 0.00 | 0.00 | 0.00 | 48 | 1010.4 |
| 20260509170857 | 55 | 139 | 3.0 | 7.0 | 0.00 | 0.00 | 0.00 | 48 | 1010.5 |
| 20260509170353 | 55 | 138 | 7.0 | 16.0 | 0.00 | 0.00 | 0.00 | 47 | 1010.4 |
| 20260509165848 | 55 | 270 | 3.0 | 8.0 | 0.00 | 0.00 | 0.00 | 48 | 1010.3 |
| 20260509165343 | 56 | 205 | 4.0 | 15.0 | 0.00 | 0.00 | 0.00 | 46 | 1010.3 |
| 20260509164839 | 56 | 238 | 2.0 | 11.0 | 0.00 | 0.00 | 0.00 | 46 | 1010.1 |
| 20260509164335 | 56 | 288 | 4.0 | 9.0 | 0.00 | 0.00 | 0.00 | 46 | 1010.3 |
| 20260509163831 | 56 | 309 | 8.0 | 9.0 | 0.00 | 0.00 | 0.00 | 47 | 1010.2 |
| 20260509163328 | 56 | 189 | 7.0 | 11.0 | 0.00 | 0.00 | 0.00 | 47 | 1010.1 |
| 20260509162827 | 56 | 252 | 6.0 | 13.0 | 0.00 | 0.00 | 0.00 | 46 | 1010.0 |
| 20260509162320 | 56 | 212 | 1.0 | 7.0 | 0.00 | 0.00 | 0.00 | 46 | 1010.0 |
| 20260509161817 | 57 | 262 | 7.0 | 16.0 | 0.00 | 0.00 | 0.00 | 45 | 1009.8 |
| 20260509161313 | 56 | 252 | 4.0 | 11.0 | 0.00 | 0.00 | 0.00 | 46 | 1010.0 |
| 20260509160809 | 55 | 299 | 7.0 | 10.0 | 0.00 | 0.00 | 0.00 | 45 | 1009.6 |
| 20260509160305 | 55 | 292 | 6.0 | 8.0 | 0.00 | 0.00 | 0.00 | 45 | 1009.9 |
| 20260509155800 | 55 | 229 | 6.0 | 17.0 | 0.00 | 0.00 | 0.00 | 45 | 1009.8 |
| 20260509155257 | 56 | 232 | 7.0 | 11.0 | 0.00 | 0.00 | 0.00 | 46 | 1009.5 |
| 20260509154753 | 56 | 222 | 2.0 | 14.0 | 0.00 | 0.00 | 0.00 | 48 | 1009.8 |
| 20260509154250 | 55 | 196 | 2.0 | 7.0 | 0.00 | 0.00 | 0.00 | 51 | 1009.5 |
| 20260509153747 | 57 | 322 | 4.0 | 11.0 | 0.00 | 0.00 | 0.00 | 50 | 1009.6 |
| 20260509153243 | 56 | 183 | 6.0 | 10.0 | 0.00 | 0.00 | 0.00 | 51 | 1009.3 |
| 20260509152740 | 55 | 315 | 3.0 | 7.0 | 0.00 | 0.00 | 0.00 | 52 | 1009.4 |
| 20260509152236 | 55 | 231 | 3.0 | 9.0 | 0.00 | 0.00 | 0.00 | 53 | 1009.2 |
| 20260509151733 | 55 | 303 | 6.0 | 9.0 | 0.00 | 0.00 | 0.00 | 54 | 1009.1 |
| 20260509151230 | 55 | 281 | 2.0 | 6.0 | 0.00 | 0.00 | 0.00 | 54 | 1009.3 |
| 20260509150728 | 55 | 353 | 2.0 | 5.0 | 0.00 | 0.00 | 0.00 | 57 | 1009.2 |
| 20260509150226 | 54 | 258 | 4.0 | 7.0 | 0.00 | 0.00 | 0.00 | 57 | 1009.1 |
| 20260509145723 | 53 | 17 | 3.0 | 9.0 | 0.00 | 0.00 | 0.00 | 57 | 1009.0 |
| 20260509145217 | 53 | 304 | 3.0 | 8.0 | 0.00 | 0.00 | 0.00 | 59 | 1008.8 |
| 20260509144714 | 53 | 218 | 8.0 | 13.0 | 0.00 | 0.00 | 0.00 | 59 | 1009.0 |
| 20260509144211 | 52 | 202 | 4.0 | 7.0 | 0.00 | 0.00 | 0.00 | 63 | 1009.1 |
| 20260509143708 | 53 | 173 | 4.0 | 9.0 | 0.00 | 0.00 | 0.00 | 61 | 1008.8 |
| 20260509143205 | 54 | 351 | 3.0 | 13.0 | 0.00 | 0.00 | 0.00 | 62 | 1009.0 |
| 20260509142701 | 54 | 215 | 3.0 | 8.0 | 0.00 | 0.00 | 0.00 | 61 | 1008.8 |
| 20260509142158 | 54 | 240 | 1.0 | 8.0 | 0.00 | 0.00 | 0.00 | 63 | 1008.6 |
| 20260509141653 | 53 | 51 | 1.0 | 2.0 | 0.00 | 0.00 | 0.00 | 65 | 1008.4 |
| 20260509141150 | 52 | 221 | 3.0 | 13.0 | 0.00 | 0.00 | 0.00 | 65 | 1008.4 |
| 20260509140647 | 53 | 259 | 3.0 | 6.0 | 0.00 | 0.00 | 0.00 | 66 | 1008.4 |
| 20260509140145 | 51 | 221 | 3.0 | 6.0 | 0.00 | 0.00 | 0.00 | 70 | 1008.3 |
| 20260509135642 | 52 | 279 | 2.0 | 6.0 | 0.00 | 0.00 | 0.00 | 70 | 1008.2 |
| 20260509135140 | 52 | 269 | 2.0 | 9.0 | 0.00 | 0.00 | 0.00 | 71 | 1008.0 |
| 20260509134636 | 51 | 172 | 4.0 | 8.0 | 0.00 | 0.00 | 0.00 | 73 | 1008.1 |
| 20260509134134 | 50 | 298 | 6.0 | 8.0 | 0.00 | 0.00 | 0.00 | 76 | 1008.2 |
| 20260509133631 | 50 | 225 | 4.0 | 6.0 | 0.00 | 0.00 | 0.00 | 77 | 1008.1 |
| 20260509133128 | 50 | 294 | 1.0 | 9.0 | 0.00 | 0.00 | 0.00 | 79 | 1007.8 |
| 20260509132626 | 50 | 345 | 3.0 | 11.0 | 0.00 | 0.00 | 0.00 | 79 | 1007.9 |
| 20260509132124 | 50 | 247 | 3.0 | 10.0 | 0.00 | 0.00 | 0.00 | 78 | 1007.9 |
| 20260509131620 | 50 | 275 | 2.0 | 8.0 | 0.00 | 0.00 | 0.00 | 77 | 1007.6 |
| 20260509131117 | 51 | 282 | 4.0 | 6.0 | 0.00 | 0.00 | 0.00 | 76 | 1007.6 |
| 20260509130613 | 50 | 272 | 7.0 | 11.0 | 0.00 | 0.00 | 0.00 | 77 | 1007.6 |
| 20260509130110 | 50 | 229 | 7.0 | 8.0 | 0.00 | 0.00 | 0.00 | 78 | 1007.5 |
| 20260509125606 | 51 | 287 | 3.0 | 5.0 | 0.00 | 0.00 | 0.00 | 78 | 1007.3 |
| 20260509125103 | 51 | 247 | 4.0 | 11.0 | 0.00 | 0.00 | 0.00 | 79 | 1007.0 |
| 20260509124559 | 50 | 275 | 6.0 | 9.0 | 0.00 | 0.00 | 0.00 | 80 | 1007.1 |
| 20260509124057 | 50 | 299 | 8.0 | 14.0 | 0.00 | 0.00 | 0.00 | 81 | 1007.2 |
| 20260509123555 | 50 | 236 | 2.0 | 14.0 | 0.00 | 0.00 | 0.00 | 81 | 1007.1 |
| 20260509123051 | 50 | 272 | 7.0 | 11.0 | 0.00 | 0.00 | 0.00 | 82 | 1007.2 |
| 20260509122547 | 50 | 190 | 5.0 | 9.0 | 0.00 | 0.00 | 0.00 | 82 | 1007.0 |
| 20260509122044 | 50 | 222 | 8.0 | 11.0 | 0.00 | 0.00 | 0.00 | 83 | 1006.8 |
| 20260509121540 | 50 | 224 | 4.0 | 8.0 | 0.00 | 0.00 | 0.00 | 83 | 1006.7 |
| 20260509121038 | 50 | 197 | 5.0 | 13.0 | 0.00 | 0.00 | 0.00 | 84 | 1006.7 |
| 20260509120536 | 50 | 238 | 1.0 | 6.0 | 0.00 | 0.00 | 0.00 | 84 | 1006.3 |
| 20260509120034 | 50 | 202 | 4.0 | 7.0 | 0.00 | 0.00 | 0.00 | 83 | 1006.5 |
| 20260509115531 | 50 | 207 | 6.0 | 9.0 | 0.00 | 0.00 | 0.00 | 82 | 1006.5 |
| 20260509115029 | 50 | 214 | 2.0 | 3.0 | 0.00 | 0.00 | 0.00 | 81 | 1006.3 |
| 20260509114527 | 51 | 208 | 4.0 | 6.0 | 0.00 | 0.00 | 0.00 | 80 | 1006.4 |
| 20260509114026 | 51 | 269 | 4.0 | 8.0 | 0.00 | 0.00 | 0.00 | 79 | 1006.2 |
| 20260509113523 | 51 | 171 | 6.0 | 8.0 | 0.00 | 0.00 | 0.00 | 78 | 1006.0 |
| 20260509113021 | 51 | 247 | 1.0 | 5.0 | 0.00 | 0.00 | 0.00 | 75 | 1005.9 |
| 20260509112517 | 50 | 208 | 1.0 | 3.0 | 0.00 | 0.00 | 0.00 | 73 | 1005.8 |
| 20260509112014 | 50 | 236 | 1.0 | 1.0 | 0.00 | 0.00 | 0.00 | 73 | 1005.7 |
| 20260509111511 | 50 | 248 | 1.0 | 1.0 | 0.00 | 0.00 | 0.00 | 72 | 1005.6 |
| 20260509111008 | 50 | 226 | 1.0 | 2.0 | 0.00 | 0.00 | 0.00 | 72 | 1005.4 |
| 20260509110505 | 50 | 241 | 2.0 | 3.0 | 0.00 | 0.00 | 0.00 | 72 | 1005.5 |
| 20260509110002 | 50 | 234 | 1.0 | 2.0 | 0.00 | 0.00 | 0.00 | 72 | 1005.5 |
| 20260509105500 | 50 | 209 | 1.0 | 6.0 | 0.00 | 0.00 | 0.00 | 72 | 1005.3 |
| 20260509104957 | 50 | 148 | 1.0 | 1.0 | 0.00 | 0.00 | 0.00 | 72 | 1005.5 |
| 20260509104454 | 50 | 264 | 1.0 | 3.0 | 0.00 | 0.00 | 0.00 | 70 | 1005.2 |
| 20260509103952 | 51 | 242 | 1.0 | 2.0 | 0.00 | 0.00 | 0.00 | 69 | 1005.4 |
| 20260509103449 | 51 | 244 | 3.0 | 5.0 | 0.00 | 0.00 | 0.00 | 65 | 1005.2 |
| 20260509102947 | 51 | 263 | 2.0 | 2.0 | 0.00 | 0.00 | 0.00 | 63 | 1005.6 |
| 20260509102444 | 52 | 246 | 1.0 | 3.0 | 0.00 | 0.00 | 0.00 | 62 | 1005.7 |
| 20260509101940 | 52 | 255 | 2.0 | 2.0 | 0.00 | 0.00 | 0.00 | 60 | 1005.5 |
| 20260509101436 | 52 | 243 | 0.0 | 1.0 | 0.00 | 0.00 | 0.00 | 59 | 1004.9 |
| 20260509100934 | 52 | 250 | 0.0 | 2.0 | 0.00 | 0.00 | 0.00 | 59 | 1005.0 |
| 20260509100431 | 52 | 28 | 2.0 | 3.0 | 0.00 | 0.00 | 0.00 | 58 | 1004.8 |
| 20260509095928 | 52 | 248 | 2.0 | 3.0 | 0.00 | 0.00 | 0.00 | 57 | 1005.2 |
| 20260509095425 | 52 | 253 | 0.0 | 3.0 | 0.00 | 0.00 | 0.00 | 56 | 1005.2 |
| 20260509094922 | 53 | 220 | 1.0 | 3.0 | 0.00 | 0.00 | 0.00 | 55 | 1005.5 |
| 20260509094418 | 53 | 267 | 1.0 | 2.0 | 0.00 | 0.00 | 0.00 | 55 | 1005.5 |
| 20260509093916 | 53 | 228 | 0.0 | 2.0 | 0.00 | 0.00 | 0.00 | 54 | 1005.4 |
| 20260509093413 | 53 | 246 | 2.0 | 6.0 | 0.00 | 0.00 | 0.00 | 54 | 1005.5 |
| 20260509092912 | 53 | 319 | 4.0 | 6.0 | 0.00 | 0.00 | 0.00 | 53 | 1005.5 |
| 20260509092409 | 53 | 254 | 2.0 | 2.0 | 0.00 | 0.00 | 0.00 | 52 | 1005.5 |
| 20260509091907 | 53 | 196 | 1.0 | 6.0 | 0.00 | 0.00 | 0.00 | 51 | 1005.3 |
| 20260509091404 | 53 | 214 | 1.0 | 3.0 | 0.00 | 0.00 | 0.00 | 51 | 1005.4 |
| 20260509090901 | 53 | 240 | 2.0 | 6.0 | 0.00 | 0.00 | 0.00 | 50 | 1005.4 |
| 20260509090358 | 53 | 289 | 2.0 | 3.0 | 0.00 | 0.00 | 0.00 | 49 | 1005.5 |
| 20260509085856 | 53 | 218 | 4.0 | 6.0 | 0.00 | 0.00 | 0.00 | 49 | 1005.4 |
| 20260509085353 | 53 | 209 | 2.0 | 5.0 | 0.00 | 0.00 | 0.00 | 49 | 1005.3 |
| 20260509084849 | 54 | 255 | 3.0 | 7.0 | 0.00 | 0.00 | 0.00 | 48 | 1005.0 |
| 20260509084346 | 54 | 203 | 1.0 | 7.0 | 0.00 | 0.00 | 0.00 | 47 | 1005.0 |
| 20260509083844 | 53 | 214 | 2.0 | 6.0 | 0.00 | 0.00 | 0.00 | 47 | 1005.0 |
| 20260509083340 | 53 | 227 | 1.0 | 3.0 | 0.00 | 0.00 | 0.00 | 47 | 1004.7 |
| 20260509082837 | 53 | 190 | 1.0 | 2.0 | 0.00 | 0.00 | 0.00 | 47 | 1005.2 |
| 20260509082333 | 53 | 230 | 1.0 | 2.0 | 0.00 | 0.00 | 0.00 | 47 | 1004.8 |
| 20260509081831 | 53 | 256 | 1.0 | 1.0 | 0.00 | 0.00 | 0.00 | 47 | 1004.8 |
| 20260509081328 | 53 | 248 | 1.0 | 2.0 | 0.00 | 0.00 | 0.00 | 45 | 1004.2 |
| 20260509080826 | 53 | 207 | 1.0 | 1.0 | 0.00 | 0.00 | 0.00 | 45 | 1004.4 |
| 20260509080324 | 53 | 220 | 1.0 | 1.0 | 0.00 | 0.00 | 0.00 | 45 | 1004.2 |
| 20260509075822 | 53 | 197 | 0.0 | 1.0 | 0.00 | 0.00 | 0.00 | 45 | 1004.1 |
| 20260509075318 | 53 | 209 | 0.0 | 0.0 | 0.00 | 0.00 | 0.00 | 45 | 1004.1 |
| 20260509074816 | 53 | 209 | 0.0 | 0.0 | 0.00 | 0.00 | 0.00 | 46 | 1003.7 |
| 20260509074313 | 54 | 209 | 0.0 | 0.0 | 0.00 | 0.00 | 0.00 | 44 | 1004.0 |
| 20260509073809 | 54 | 185 | 0.0 | 1.0 | 0.00 | 0.00 | 0.00 | 43 | 1004.5 |
| 20260509073306 | 54 | 207 | 0.0 | 1.0 | 0.00 | 0.00 | 0.00 | 43 | 1004.2 |
| 20260509072803 | 54 | 214 | 0.0 | 0.0 | 0.00 | 0.00 | 0.00 | 43 | 1004.1 |
| 20260509072259 | 54 | 216 | 0.0 | 0.0 | 0.00 | 0.00 | 0.00 | 43 | 1004.4 |
| 20260509071756 | 54 | 207 | 0.0 | 1.0 | 0.00 | 0.00 | 0.00 | 42 | 1004.6 |
| 20260509071253 | 54 | 210 | 0.0 | 1.0 | 0.00 | 0.00 | 0.00 | 43 | 1004.5 |
| 20260509070750 | 54 | 210 | 0.0 | 2.0 | 0.00 | 0.00 | 0.00 | 42 | 1004.5 |
| 20260509070246 | 53 | 202 | 0.0 | 0.0 | 0.00 | 0.00 | 0.00 | 43 | 1004.5 |
| 20260509065743 | 52 | 208 | 0.0 | 0.0 | 0.00 | 0.00 | 0.00 | 44 | 1004.4 |
| 20260509065239 | 51 | 204 | 0.0 | 0.0 | 0.00 | 0.00 | 0.00 | 46 | 1004.6 |
| 20260509064735 | 51 | 212 | 0.0 | 0.0 | 0.00 | 0.00 | 0.00 | 46 | 1004.5 |
| 20260509064233 | 52 | 211 | 0.0 | 0.0 | 0.00 | 0.00 | 0.00 | 44 | 1004.4 |
| 20260509063730 | 51 | 209 | 0.0 | 0.0 | 0.00 | 0.00 | 0.00 | 45 | 1004.7 |
| 20260509063226 | 51 | 209 | 0.0 | 0.0 | 0.00 | 0.00 | 0.00 | 45 | 1004.7 |
| 20260509062724 | 50 | 240 | 0.0 | 0.0 | 0.00 | 0.00 | 0.00 | 49 | 1004.6 |
| 20260509062221 | 51 | 240 | 0.0 | 0.0 | 0.00 | 0.00 | 0.00 | 49 | 1004.8 |
| 20260509061718 | 52 | 240 | 0.0 | 0.0 | 0.00 | 0.00 | 0.00 | 45 | 1004.7 |
| 20260509061216 | 52 | 233 | 0.0 | 0.0 | 0.00 | 0.00 | 0.00 | 45 | 1004.8 |
| 20260509060713 | 52 | 164 | 0.0 | 0.0 | 0.00 | 0.00 | 0.00 | 44 | 1004.7 |
| 20260509060209 | 52 | 177 | 0.0 | 0.0 | 0.00 | 0.00 | 0.00 | 43 | 1004.8 |
| 20260509055705 | 53 | 193 | 0.0 | 0.0 | 0.00 | 0.00 | 0.00 | 43 | 1005.3 |
| 20260509055201 | 53 | 212 | 0.0 | 0.0 | 0.00 | 0.00 | 0.00 | 42 | 1005.2 |
| 20260509054657 | 52 | 208 | 0.0 | 0.0 | 0.00 | 0.00 | 0.00 | 43 | 1005.3 |
| 20260509054155 | 52 | 208 | 0.0 | 0.0 | 0.00 | 0.00 | 0.00 | 43 | 1005.2 |
| 20260509053653 | 53 | 208 | 0.0 | 0.0 | 0.00 | 0.00 | 0.00 | 43 | 1005.2 |
| 20260509053150 | 54 | 208 | 0.0 | 0.0 | 0.00 | 0.00 | 0.00 | 41 | 1005.3 |
| 20260509052648 | 55 | 208 | 0.0 | 0.0 | 0.00 | 0.00 | 0.00 | 40 | 1005.2 |
| 20260509052145 | 55 | 203 | 0.0 | 1.0 | 0.00 | 0.00 | 0.00 | 39 | 1005.3 |
| 20260509051643 | 56 | 211 | 0.0 | 0.0 | 0.00 | 0.00 | 0.00 | 38 | 1005.4 |
| 20260509051140 | 56 | 234 | 1.0 | 1.0 | 0.00 | 0.00 | 0.00 | 37 | 1005.3 |
| 20260509050637 | 56 | 202 | 1.0 | 1.0 | 0.00 | 0.00 | 0.00 | 37 | 1005.3 |
| 20260509050133 | 57 | 224 | 0.0 | 3.0 | 0.00 | 0.00 | 0.00 | 37 | 1005.4 |
| 20260509045631 | 57 | 270 | 1.0 | 2.0 | 0.00 | 0.00 | 0.00 | 36 | 1005.5 |
| 20260509045127 | 57 | 204 | 3.0 | 3.0 | 0.00 | 0.00 | 0.00 | 37 | 1005.5 |
| 20260509044625 | 57 | 221 | 2.0 | 3.0 | 0.00 | 0.00 | 0.00 | 36 | 1005.7 |
| 20260509044122 | 58 | 228 | 1.0 | 2.0 | 0.00 | 0.00 | 0.00 | 36 | 1005.5 |
| 20260509043618 | 58 | 166 | 1.0 | 5.0 | 0.00 | 0.00 | 0.00 | 36 | 1005.4 |
| 20260509043114 | 58 | 220 | 3.0 | 5.0 | 0.00 | 0.00 | 0.00 | 35 | 1005.7 |
| 20260509042611 | 58 | 237 | 3.0 | 11.0 | 0.00 | 0.00 | 0.00 | 36 | 1005.5 |
| 20260509042106 | 58 | 225 | 2.0 | 7.0 | 0.00 | 0.00 | 0.00 | 36 | 1005.8 |
| 20260509041603 | 59 | 249 | 2.0 | 7.0 | 0.00 | 0.00 | 0.00 | 35 | 1005.6 |
| 20260509041101 | 59 | 185 | 3.0 | 6.0 | 0.00 | 0.00 | 0.00 | 35 | 1005.6 |
| 20260509040600 | 59 | 174 | 1.0 | 7.0 | 0.00 | 0.00 | 0.00 | 36 | 1005.6 |
| 20260509040056 | 59 | 249 | 1.0 | 6.0 | 0.00 | 0.00 | 0.00 | 36 | 1005.6 |
| 20260509035553 | 59 | 282 | 2.0 | 8.0 | 0.00 | 0.00 | 0.00 | 35 | 1005.5 |
| 20260509035049 | 60 | 203 | 3.0 | 6.0 | 0.00 | 0.00 | 0.00 | 35 | 1005.7 |